Location: Unspecified
(43.1763°N, 79.4719°W)
Time: 04:37:49
(UTC-04:00)

ISS - Visible Passes

Search period start: 21 October 2017 00:00
Search period end: 31 October 2017 00:00
Orbit: 401 x 408 km, 51.6° (Epoch: 21 October)

Date Brightness Start Highest point End Pass type
(mag) Time Alt. Az. Time Alt. Az. Time Alt. Az.
28 Oct -1.4 07:13:25 10° SSW 07:16:09 25° SE 07:18:54 10° E visible
29 Oct -0.8 06:22:11 10° SSE 06:23:56 14° SE 06:25:41 10° E visible
30 Oct -3.2 07:04:23 10° SW 07:07:35 58° SE 07:10:48 10° ENE visible
